BREEZE-KM R/B, 40923

Orbit data source: Space-Track

BREEZE-KM R/B, 40923 is space debris in LEO originally from a launch on Wed, 23 Sep 2015 UTC launched from the Plesetsk Missile And Space Complex (PKMTR). Debris objects in space refer to the collection of defunct objects orbiting the Earth. Examples of debris include non-operational satellites, rocket bodies, and fragments generated from explosions, collisions, or faulty payload assembly.

Loading next visibility...
Identifier
40923, 2015-050D
Orbit
LEO
Country
Flag of CISCIS
Related business
Manufacturer
Khrunichev
Mission
Spacecraft
Bus & Motor
BRIZ, S5.92
Mass
2,370 kg wet, 2,370 kg dry
Launch date (UTC)
2015-09-23 (10 years ago)
Launch vehicle
Unknown
Launch site
Plesetsk Missile And Space Complex (PKMTR)
Object type
Payload
Rocket body
Debris
Shape & HBR
Hex Cyl + 1 Rod, 2.0 m
Radar Cross Section
10.190 m², Large (>1 m²)

Expand to show TLE details & history
Last TLE update: 13 hours ago

TLE from 13 hours ago
0 BREEZE-KM R/B
1 40923U 15050D   25310.29137778  .00000017  00000-0  30554-4 0  9993
2 40923  82.4911  50.2504 0201473 263.6703  94.1419 12.80439630473047
Epoch: 2025-11-06T06:59Z
TLE epoch observation values (Epoch: 2025-11-06T06:59:35.040Z)
Latitude
-0.00003°
Longitude
-100.39741°
Altitude
1,356.799 km
Speed
7.173 km/s
True Right ascension
03h 21m 00s
True Declination
0° 00' 00"
Sunlit
Object was in full shadow at epoch
Visualization orbit readout
Latitude
Unknown
Longitude
Unknown
Altitude
Unknown
Speed
Unknown
Apparent Right ascension
Unknown
Apparent Declination
Unknown
Sunlit
N/A
Visualization observer readout
Local Sidereal Time
15:46:33
Azimuth
Unknown
Elevation
Unknown
Doppler factor
Unknown
Orbital elements
Apogee altitude
1,492.439 km
Perigee altitude
1,181.561 km
Semi-major axis
7,715.137 km
Eccentricity
0.02015
Inclination
82.4911°
RAAN
50.2504°
Arg. of periapsis
263.6703°
True anomaly
96.43978°
Mean anomaly
94.1419°
Eccentric anomaly
95.29134°
Mean motion
3.20278 °/min
Orbital period
112.4 mins
BSTAR
0.000030554
Loading maneuver chart data...
Computing Atmospheric mass density...
Loading historical data...
Loading historical data...
Loading historical data...
Loading historical data...
Loading historical data...
Loading historical data...
Loading historical data...
Other satellites on launch #50 in the year 2015 (2015-09-23 UTC)

Documentation

Showing up to 5 results
|